Back to catalog

FENGYUN 1C DEB

AlivePO
NORAD 31038·DEBRIS·🇨🇳 China

Launched May 10, 1999 from Taiyuan Satellite Launch Center

Loading…

Next Passes (next 24 hours)

TLE

FreshSource: Space-Track

Epoch: Sep 14, 2026, 02:10 UTC

1 31038U 99025BEG 26257.09031679  .00001117  00000-0  30929-3 0  9993
2 31038  99.0119   3.3124 0084454 127.7657 233.1223 14.46755733 22116

Track FENGYUN 1C DEB in real time with AllMySat

Download on the App Store